Theta_e
290 289 289 289 288 288 288 288 288 288 287 287 286 285 285 285 285 285 285 284 284 284 283 283 283 283 282 282 282 282 282 282 282 282 282 282 282 282 282 282 281 281 282 281 282 282 282 282 282 282 283 282 283 283 283 283 284 283 284 283 283 283 283 282 280 280 283 286 285 286 287 288 286 288 287 287 288 289 289 290 290 290 290 290 290
289 289 289 289 288 287 286 286 286 286 286 285 285 284 284 284 284 284 283 283 283 282 282 282 281 281 281 281 281 281 281 281 281 281 280 280 280 281 281 280 280 280 280 280 281 282 282 281 281 282 283 282 282 282 282 282 283 282 282 282 282 282 283 281 280 280 279 282 283 285 285 287 285 287 286 286 286 288 287 288 289 290 290 290 289
289 288 287 286 285 285 285 285 285 285 284 284 283 283 283 282 282 282 281 281 281 281 281 280 280 280 280 280 280 279 279 279 279 279 279 279 278 279 279 279 279 279 279 279 280 280 280 280 280 281 282 281 281 282 282 282 282 282 282 282 281 282 282 282 281 279 279 280 282 282 283 284 284 285 286 286 287 287 286 287 287 289 290 290 290
287 286 286 285 285 284 284 284 284 284 283 283 282 281 281 281 280 280 280 279 279 280 280 279 278 278 278 278 278 278 278 278 278 278 278 277 277 277 278 278 278 278 278 279 279 279 279 279 280 280 280 280 280 280 281 281 281 281 281 281 281 281 282 282 282 280 280 279 280 281 283 282 283 285 285 286 285 285 286 286 287 287 288 290 290
286 286 286 285 285 284 283 283 283 282 282 281 280 280 279 279 279 278 278 278 278 278 278 278 277 277 277 276 277 277 277 276 276 276 277 277 277 277 277 277 278 278 278 278 279 279 279 279 279 279 279 278 279 279 280 279 280 280 280 280 280 281 281 281 281 281 279 279 279 281 282 282 283 284 284 283 284 285 285 285 285 286 287 288 289
286 286 285 284 283 283 282 282 281 281 280 280 279 278 278 277 277 277 277 276 277 277 276 276 276 276 276 276 276 276 276 275 275 275 276 276 276 276 277 277 277 277 277 278 278 278 278 278 278 278 277 277 277 278 278 278 278 278 278 279 279 280 279 280 280 280 280 279 279 279 281 281 281 282 284 284 283 282 283 284 285 286 285 286 287
286 285 285 283 282 282 281 281 280 280 279 278 278 277 276 276 275 275 275 275 275 275 275 275 275 275 275 275 274 274 274 274 274 275 275 275 275 276 276 276 276 277 277 277 277 277 277 277 277 277 276 277 276 277 277 277 277 277 277 277 278 278 278 278 279 279 279 279 279 279 279 281 281 280 283 284 283 283 282 282 282 284 285 285 285
285 284 283 282 282 281 280 280 279 278 278 277 276 275 275 275 274 274 274 274 274 274 273 273 274 274 274 274 273 273 273 273 274 274 274 274 275 275 276 276 276 276 276 276 276 276 276 276 276 276 276 277 276 276 276 275 276 275 276 277 277 276 276 277 277 277 277 277 277 277 279 279 280 281 282 282 281 281 282 282 280 281 283 285 285
283 283 282 281 280 280 279 278 278 277 276 275 274 274 274 273 273 273 273 273 273 273 272 272 272 273 273 272 272 272 272 272 273 272 273 274 275 275 275 275 275 274 274 275 275 275 275 275 275 276 276 276 276 276 277 277 275 274 275 276 275 275 275 275 275 275 275 275 275 277 276 276 277 278 278 279 279 279 281 282 281 281 282 282 283
282 282 281 280 279 279 278 277 276 276 275 274 273 273 273 272 272 272 272 272 272 272 271 271 272 271 271 271 271 271 271 272 271 272 274 274 274 274 274 274 274 274 273 273 273 274 274 274 275 275 275 275 275 275 276 276 276 275 274 274 274 273 273 273 273 273 273 273 273 274 273 274 275 277 277 278 280 280 280 280 279 280 281 281 282
281 281 280 279 278 278 277 276 275 274 273 272 272 271 271 271 271 271 270 270 270 270 270 270 271 270 270 270 270 270 270 270 271 272 274 274 274 273 273 273 273 273 273 272 272 272 273 273 273 273 273 273 273 274 274 275 275 275 276 276 276 273 272 271 271 272 271 271 272 272 272 272 273 275 275 276 277 278 278 278 278 278 278 277 277
281 280 279 278 277 276 275 274 273 272 271 271 270 269 269 269 269 269 269 269 269 269 269 269 269 269 269 269 269 269 269 270 271 272 273 274 274 273 273 272 272 272 272 272 272 272 272 271 272 272 271 271 271 271 272 273 274 274 274 275 275 276 276 273 272 271 271 271 271 271 272 272 273 274 274 275 275 276 276 276 276 276 275 275 276
280 279 278 277 276 275 274 273 272 271 270 269 269 268 268 268 268 268 267 268 268 268 268 268 268 268 268 268 268 268 268 269 270 271 273 274 274 273 272 272 271 271 271 271 271 271 270 270 269 270 270 271 271 271 271 271 272 273 273 273 274 274 274 275 276 273 273 271 271 271 272 272 272 273 274 274 276 274 274 274 275 275 276 275 276
279 277 276 275 274 273 272 271 270 270 268 268 268 267 267 267 267 267 267 267 267 267 267 266 267 267 266 266 266 267 267 268 270 271 272 273 273 273 272 271 271 271 270 270 270 269 269 269 269 269 270 270 270 271 271 270 270 271 271 271 271 272 274 275 275 276 275 273 272 270 272 273 272 273 275 276 274 273 273 273 275 274 274 274 276
277 276 275 274 273 272 271 270 269 268 267 267 266 266 266 266 266 267 266 266 266 266 266 265 265 265 265 265 265 265 265 268 270 271 271 272 273 273 271 270 269 269 269 269 269 269 269 269 269 269 269 270 270 271 270 270 270 270 270 270 271 272 273 273 274 274 274 274 273 273 273 274 274 275 275 276 276 276 276 275 276 276 276 278 278
276 275 273 272 271 271 269 269 268 267 267 266 266 266 266 265 265 266 265 265 266 266 265 265 264 264 264 264 264 264 265 267 269 270 271 272 273 270 269 268 268 268 268 269 268 269 269 269 269 269 269 270 271 273 273 272 271 271 270 271 271 272 273 275 277 277 276 275 275 275 276 276 278 276 277 277 277 277 278 278 278 277 275 274 273
275 273 272 272 271 270 269 268 267 266 266 265 265 264 265 264 265 265 264 264 264 264 264 263 264 263 263 262 262 263 263 265 268 269 271 271 271 268 268 268 268 268 268 268 269 269 269 269 269 269 269 270 272 274 275 275 272 271 271 271 272 272 273 275 277 278 278 279 279 279 280 280 280 281 281 281 279 278 277 275 273 274 273 271 272
274 273 272 271 270 269 268 266 266 265 264 264 263 264 264 264 264 264 263 263 263 263 263 263 263 263 262 262 262 261 262 264 267 269 270 270 270 268 268 268 267 267 268 269 269 269 270 271 271 270 270 271 273 275 276 274 272 272 272 271 271 271 272 274 275 276 278 279 279 279 279 280 280 280 280 280 280 279 275 272 273 274 272 272 270
273 272 271 270 269 267 266 265 265 264 263 263 262 262 263 263 263 263 263 263 262 263 262 262 262 262 262 261 262 262 262 263 266 268 269 270 270 268 268 267 267 267 268 268 269 269 270 271 272 272 272 273 276 276 276 275 273 273 272 272 271 271 272 274 274 274 274 274 275 275 276 277 277 276 277 279 279 278 276 275 275 273 271 271 271
273 271 270 268 267 266 265 263 263 263 263 262 262 262 262 262 262 262 262 262 262 262 262 262 260 261 262 261 262 262 262 262 263 267 269 270 271 269 269 267 267 267 267 268 268 269 270 270 272 274 275 275 276 276 276 277 274 274 274 273 272 272 274 274 275 274 274 274 274 275 275 276 276 276 276 276 276 277 276 276 275 274 272 272 271
270 269 268 267 265 264 264 263 261 261 261 261 262 261 261 262 261 261 260 261 261 261 260 260 260 261 262 262 262 262 262 262 263 267 269 270 271 271 269 268 268 268 268 268 269 269 269 270 271 273 275 276 276 277 277 277 277 274 274 273 274 275 277 275 275 276 275 275 274 274 274 274 274 274 275 275 275 275 275 276 275 275 274 272 271
269 267 266 265 264 262 262 261 261 260 260 260 260 260 261 260 260 259 261 260 259 259 259 260 260 261 261 262 262 262 263 263 264 266 268 270 271 272 270 269 270 270 269 269 269 269 270 270 271 273 275 276 276 277 277 277 278 275 275 277 277 277 275 274 274 273 272 272 272 272 272 272 272 272 273 273 274 274 274 274 275 275 275 274 273
267 266 265 263 262 261 260 260 259 259 258 259 258 258 259 259 259 259 259 259 259 258 259 260 260 260 261 262 263 263 264 265 266 266 269 271 271 272 273 272 273 271 270 269 270 270 271 271 272 274 275 276 276 277 277 277 275 274 276 277 276 276 274 271 271 270 270 270 270 269 270 270 270 271 271 271 272 273 273 273 274 274 274 274 274
265 264 262 262 260 260 259 258 258 258 258 258 258 258 258 259 259 259 259 259 260 259 260 260 260 260 261 262 263 265 265 266 268 269 269 271 272 273 273 274 274 272 272 271 271 271 271 271 272 276 276 276 276 276 276 275 273 275 275 275 274 272 269 268 268 268 268 267 267 267 268 269 269 269 269 270 271 271 271 272 272 273 273 273 273
262 262 261 260 259 259 258 258 258 258 258 258 258 259 259 258 259 260 259 259 259 259 260 260 260 260 261 261 263 264 266 266 267 268 270 270 272 273 273 274 275 275 272 272 272 272 273 275 275 275 274 274 274 273 272 272 272 272 272 272 270 267 267 266 266 266 265 265 265 265 266 267 268 268 269 270 270 270 270 270 271 271 272 272 272
260 260 259 259 259 258 258 258 257 257 257 259 258 259 258 258 259 259 259 259 259 259 259 259 260 260 261 262 263 265 265 266 267 267 268 269 270 272 273 274 274 274 273 271 273 273 273 272 272 271 271 270 268 268 268 267 270 270 269 268 266 266 266 266 265 264 264 264 264 264 265 266 267 268 268 268 267 267 268 268 268 269 270 270 270
260 259 259 259 258 257 258 260 260 259 257 259 259 259 259 259 259 258 259 259 259 259 259 259 260 261 261 263 264 265 266 266 266 267 268 268 268 269 271 271 272 272 270 269 270 268 267 268 268 269 268 268 268 268 267 267 266 266 266 266 266 266 266 265 265 264 264 264 265 265 266 266 267 267 266 266 266 266 267 267 266 266 267 268 268
260 259 258 259 259 258 258 257 257 260 259 259 259 260 259 259 258 259 259 260 259 259 260 260 261 261 262 263 264 265 265 266 266 267 268 269 271 272 271 270 270 269 268 269 267 265 265 266 265 265 264 264 264 265 265 265 266 266 265 265 265 266 266 267 267 266 265 266 265 266 266 266 265 266 266 266 266 266 267 266 266 266 267 267 266
259 258 258 258 258 258 259 258 259 259 259 258 259 259 259 259 259 259 260 260 260 259 260 261 261 262 262 264 265 264 265 265 266 270 271 273 272 271 270 270 269 269 269 271 267 264 264 263 263 263 263 263 263 263 264 264 264 265 264 265 265 265 265 265 265 265 265 265 265 265 265 265 265 266 266 266 266 266 267 267 267 266 266 266 265
258 258 258 258 258 258 259 258 258 258 258 258 258 258 259 261 260 260 260 263 265 267 266 262 264 266 266 267 267 265 265 267 271 272 273 273 273 273 273 272 271 270 270 270 266 263 262 262 263 262 262 262 262 262 263 263 263 264 264 266 265 265 265 265 265 265 266 265 265 265 265 265 265 266 266 266 266 267 267 268 266 266 265 265 265
259 259 258 259 258 259 259 258 258 258 258 258 258 258 259 260 263 264 266 265 266 267 268 269 269 269 268 266 267 270 270 271 271 272 273 273 272 272 272 271 270 270 270 266 263 262 262 262 262 262 262 262 262 262 262 263 263 263 263 264 265 265 265 265 266 266 266 266 266 266 266 265 265 266 266 266 266 266 267 267 267 266 265 265 265
261 260 259 259 258 258 259 258 258 258 258 258 258 258 258 259 260 262 263 264 265 266 267 268 268 268 268 268 267 267 268 270 271 272 272 272 271 271 271 270 269 269 268 266 261 261 262 261 261 261 261 261 262 262 262 262 263 263 263 263 264 265 265 265 267 267 267 266 266 266 266 266 266 266 266 266 266 266 266 266 267 266 266 267 266
259 259 258 258 258 258 258 258 258 258 257 257 257 258 258 258 258 259 261 262 264 265 266 266 266 267 267 268 268 268 269 269 270 271 271 270 270 270 269 268 268 268 266 262 261 261 261 261 261 261 261 261 261 262 262 263 263 263 264 263 264 265 266 267 268 267 267 267 268 267 268 268 267 267 267 267 266 266 266 266 267 267 267 266 266
257 259 258 258 258 258 258 258 258 258 258 258 258 258 257 258 257 257 257 258 260 262 264 264 265 265 266 267 267 267 268 269 270 270 270 269 269 269 267 264 266 266 264 260 261 261 261 260 261 261 261 261 262 262 262 263 263 263 264 265 265 266 267 268 268 267 267 267 267 267 268 268 268 268 267 267 267 267 267 267 267 267 266 267 266
256 256 256 257 258 258 258 259 258 257 257 257 257 257 257 257 257 257 257 256 256 257 258 260 262 264 264 264 265 267 267 268 269 269 269 268 268 267 265 261 261 261 261 261 261 261 260 260 260 261 261 261 261 262 262 263 263 264 264 265 266 267 267 267 267 267 267 267 267 267 267 267 268 268 268 268 267 267 267 267 268 268 267 267 268
256 258 257 256 257 258 258 258 258 257 257 258 258 258 258 257 257 257 257 256 256 256 257 258 259 261 263 264 264 265 266 267 268 268 267 267 266 264 259 259 259 259 259 260 260 260 260 260 261 261 261 261 262 262 263 263 264 264 265 266 266 266 267 266 267 266 267 266 266 267 267 267 268 268 268 269 269 268 268 268 268 269 269 269 269
256 258 258 258 257 258 257 257 257 257 258 257 257 257 257 257 257 257 257 256 256 256 257 257 257 258 261 260 260 263 265 266 267 267 265 265 264 260 259 259 258 258 259 259 259 259 259 260 261 261 261 261 262 262 263 263 264 265 266 266 267 267 266 267 267 266 266 266 266 266 266 266 267 267 268 267 268 269 270 270 270 270 270 271 272
257 257 257 257 255 255 255 255 256 256 257 257 258 257 257 256 256 256 256 256 256 256 256 256 257 256 257 259 260 259 260 264 265 264 262 261 259 259 258 258 258 258 258 259 259 259 259 259 260 260 261 261 261 262 263 263 264 265 265 266 266 267 268 267 267 266 266 266 266 266 266 266 267 267 267 267 268 269 270 271 271 271 271 272 273
255 256 256 256 257 256 256 256 256 256 257 257 257 257 256 255 256 256 256 256 255 255 255 255 256 256 257 258 258 259 260 261 261 259 258 258 258 258 258 258 258 258 258 258 258 258 258 259 259 260 261 261 262 262 263 263 264 264 265 265 266 266 266 266 266 266 266 266 265 266 266 266 266 267 267 267 268 269 269 269 270 271 271 272 273
255 256 257 257 258 259 258 257 257 256 256 256 256 255 255 255 255 255 255 255 255 255 255 255 256 256 257 256 256 258 260 260 259 258 257 256 257 257 257 257 257 258 257 257 258 258 258 259 259 260 260 261 261 262 263 263 263 264 265 265 265 265 266 266 266 266 266 265 265 266 266 266 266 266 267 268 268 268 269 269 270 271 271 272 272
256 256 255 257 257 257 257 256 256 256 256 256 255 255 255 255 255 255 255 255 255 255 255 255 256 256 257 257 261 262 261 259 258 257 256 256 256 256 256 257 257 257 257 257 257 258 258 258 259 259 260 261 261 262 262 262 263 264 264 265 265 265 266 266 266 266 266 265 265 265 265 266 266 266 266 267 268 269 269 270 270 270 271 271 272
256 255 255 256 256 256 256 255 255 255 255 254 254 254 254 254 254 255 254 254 255 255 255 255 256 256 257 259 261 262 260 258 256 255 255 255 255 256 256 257 257 257 257 257 257 257 257 258 258 259 260 260 261 261 262 262 262 263 263 264 265 265 265 266 266 266 266 265 265 265 265 265 266 266 266 268 267 267 268 269 269 270 270 270 270
254 255 255 255 255 255 255 255 255 254 254 254 254 254 254 254 254 254 254 254 254 254 254 254 255 256 255 258 258 259 257 255 254 254 254 255 255 256 256 256 257 257 257 257 257 257 257 257 258 259 259 260 260 261 261 261 262 262 263 263 264 264 265 266 266 266 266 265 265 265 265 265 265 265 266 266 267 267 267 268 268 269 269 269 269
254 255 254 254 254 254 254 254 254 254 254 253 253 253 254 254 254 254 254 254 253 254 254 254 254 255 255 255 256 255 254 254 254 254 254 254 255 255 256 256 256 256 256 257 257 258 257 257 257 258 259 260 261 261 261 262 262 262 262 263 264 264 265 266 266 266 266 265 265 264 264 264 264 265 265 266 266 266 266 267 267 268 268 268 268
254 254 254 254 254 254 254 253 253 253 253 253 253 253 254 254 254 254 254 253 253 253 254 254 254 254 254 254 254 254 253 253 253 254 254 254 254 255 255 256 255 255 256 256 257 257 257 257 257 257 258 259 260 260 261 261 262 263 263 263 263 264 265 266 267 267 267 265 264 264 264 263 263 264 265 265 265 265 266 266 266 267 267 267 267
254 254 253 254 253 253 253 253 252 252 252 253 253 253 253 253 253 253 253 253 253 253 253 254 254 254 254 254 254 253 253 253 253 253 254 254 254 255 255 255 255 255 255 256 256 256 256 257 257 257 257 257 258 259 260 260 262 262 263 264 264 265 266 267 267 267 267 265 264 263 263 263 263 264 264 264 264 265 265 265 266 266 265 265 265
253 253 253 253 253 253 252 252 252 252 252 252 252 252 253 253 253 252 252 252 252 253 253 253 253 253 253 253 253 252 253 253 253 253 253 253 253 253 254 254 254 254 255 255 255 256 256 256 257 257 257 257 258 258 259 260 261 262 263 264 265 265 266 267 267 267 267 266 265 263 263 262 263 263 264 264 264 264 264 264 264 264 264 264 264
253 253 253 253 253 253 252 252 252 252 252 252 252 252 253 253 253 252 252 252 252 252 252 253 252 252 252 252 252 252 252 252 253 253 253 253 253 254 253 253 253 254 255 255 255 256 256 256 256 256 256 257 257 258 259 259 261 262 262 263 264 265 265 266 267 267 267 266 265 263 262 262 262 262 263 263 263 263 263 263 263 264 264 264 264
253 253 253 253 252 252 252 252 252 252 252 252 252 252 252 252 252 252 252 252 252 252 252 252 252 252 252 252 252 252 252 252 252 252 253 253 253 253 253 253 253 253 254 254 255 255 255 255 256 256 256 257 257 258 258 259 260 261 261 262 263 264 265 266 267 267 267 266 265 264 263 262 262 261 262 262 262 262 262 263 262 263 263 263 263
253 253 253 252 252 252 253 252 252 252 252 252 252 252 252 252 252 251 251 251 251 251 251 251 251 251 251 251 251 251 252 252 252 252 253 253 253 253 253 253 253 253 253 254 254 255 255 255 255 255 256 256 257 257 258 259 260 260 261 262 263 264 265 266 266 267 267 266 265 264 263 262 261 261 262 262 262 261 261 262 262 262 262 261 261
252 252 252 252 253 253 252 252 252 252 252 252 251 251 251 251 252 252 251 251 251 251 251 251 251 251 251 251 251 251 251 251 252 252 252 252 253 253 253 253 253 253 253 253 253 254 255 255 255 256 256 256 257 257 258 258 259 260 261 262 263 265 266 266 266 267 267 266 264 265 263 262 261 261 261 261 262 261 261 261 261 261 261 262 261
Wind_Speed
6 6 5 6 6 6 6 5 6 6 6 6 6 5 4 4 3 3 2 3 3 3 4 4 5 5 6 6 6 6 6 6 6 6 6 6 6 7 7 7 7 7 7 8 7 7 8 9 9 9 8 9 8 8 8 8 8 8 8 8 9 9 9 10 13 15 13 8 10 11 10 11 13 11 12 11 9 9 10 11 12 11 11 10 10
5 6 5 5 6 6 6 5 5 5 6 6 5 4 3 3 3 3 3 3 3 3 4 3 4 5 5 5 5 5 5 6 6 5 6 7 7 5 6 7 8 8 7 8 8 7 8 9 10 9 9 9 10 10 9 9 9 9 9 9 9 10 9 10 12 13 17 12 11 10 12 9 14 12 12 12 12 10 11 10 10 11 11 11 10
5 4 5 5 6 5 5 5 6 6 6 5 5 4 4 4 3 3 3 2 2 3 3 4 4 4 4 5 5 5 5 6 5 6 6 7 8 7 7 8 8 9 9 9 9 9 9 10 10 9 7 9 10 10 9 10 9 10 11 10 11 11 10 10 11 14 16 16 13 13 11 10 11 13 13 12 13 13 13 12 11 9 10 12 11
5 5 5 6 6 6 6 6 6 5 5 5 5 4 3 3 3 3 3 3 3 3 3 4 4 5 5 6 6 6 7 6 7 7 7 8 8 9 8 8 8 9 10 10 10 10 10 11 10 10 10 12 11 10 9 9 9 10 11 11 11 12 11 10 11 12 13 16 15 13 12 13 11 12 12 11 12 15 13 12 12 12 11 11 12
5 6 7 7 6 6 6 5 5 5 5 5 5 4 3 3 3 3 4 4 4 4 5 5 5 6 5 7 7 7 7 7 8 8 7 7 8 8 9 9 9 10 10 10 10 11 11 11 11 11 11 12 12 10 10 12 11 11 11 11 11 11 10 11 12 12 14 16 16 14 13 13 12 12 12 12 12 13 15 15 13 13 13 12 11
6 7 7 7 6 6 5 5 5 5 5 5 4 4 4 4 4 4 4 5 4 4 5 5 5 5 6 6 6 6 6 7 7 8 8 8 8 8 9 9 10 10 11 11 10 10 11 12 12 11 11 12 12 12 12 13 12 12 13 12 12 12 13 13 13 13 14 15 15 16 14 14 13 11 10 11 11 12 13 14 14 13 13 13 12
7 7 7 7 6 5 5 4 4 4 4 4 4 4 4 3 4 3 3 3 4 4 5 5 5 5 6 5 6 6 6 6 7 7 8 8 9 9 10 10 11 10 10 10 11 11 11 11 11 11 12 11 12 12 12 13 11 14 14 13 13 13 13 13 14 15 15 16 16 16 16 15 13 15 11 10 14 12 15 16 14 12 13 13 13
7 7 7 6 6 5 5 4 4 4 4 4 3 3 2 2 3 3 3 4 4 4 5 5 5 5 5 5 5 5 6 6 6 7 8 8 9 10 10 11 11 11 11 11 11 10 11 11 11 11 11 11 11 12 13 13 12 14 13 13 13 14 14 14 13 13 13 14 14 15 15 16 15 14 13 12 12 13 12 14 16 14 13 12 12
7 7 6 6 5 5 5 4 3 4 3 3 2 2 2 2 2 3 3 3 3 3 4 5 5 5 5 5 5 5 5 5 4 6 9 10 9 11 11 11 12 12 12 12 11 11 11 11 11 11 12 15 19 18 17 16 14 14 14 13 14 14 14 13 13 13 13 13 15 14 15 15 15 14 14 12 13 14 14 13 16 16 14 15 15
8 7 6 6 5 5 4 4 3 3 3 2 2 2 2 2 2 2 3 3 3 4 4 4 4 5 6 6 5 5 4 4 6 12 13 10 11 10 11 12 12 12 13 13 13 12 12 11 12 16 17 17 18 19 19 19 19 16 15 14 14 14 14 14 14 13 13 14 15 14 15 15 14 14 15 14 14 14 15 15 15 14 15 15 15
7 7 6 6 5 5 4 4 3 3 3 2 2 2 2 2 2 2 2 3 3 3 4 4 4 5 5 6 6 5 5 5 11 14 15 16 12 11 12 12 12 12 12 12 13 13 12 12 12 14 15 15 14 17 18 19 19 20 21 21 18 15 14 14 14 14 14 15 15 16 16 18 18 16 16 16 15 15 14 14 13 13 13 13 14
7 7 6 6 5 5 4 4 3 3 3 2 1 1 1 2 2 2 2 3 3 3 4 4 4 5 4 5 6 6 6 8 13 14 16 17 15 12 11 11 11 11 11 12 12 12 12 12 11 11 11 12 13 14 16 18 18 19 19 19 19 20 19 15 14 13 13 14 15 15 15 16 16 15 15 14 14 15 15 15 16 16 17 17 16
7 7 6 6 5 4 4 4 3 3 3 2 1 1 1 2 1 2 2 3 3 3 4 4 4 5 5 6 7 7 7 9 13 16 17 17 17 15 11 11 11 12 12 12 12 12 12 12 12 10 10 16 13 13 13 14 16 18 18 18 18 18 18 20 20 16 14 15 15 17 15 15 17 16 14 15 15 17 17 15 13 14 14 15 14
7 7 6 6 5 5 4 4 3 3 2 2 0 1 1 1 2 2 2 3 3 3 4 4 4 4 5 7 7 7 8 10 15 16 17 18 18 16 12 12 12 12 12 12 11 12 11 11 12 12 12 12 12 13 13 13 13 13 13 12 13 17 20 23 24 25 21 16 16 17 17 15 17 16 16 15 16 16 16 17 17 18 18 19 20
7 7 6 6 5 4 4 4 3 3 2 1 1 1 1 1 2 2 2 3 3 4 4 4 4 4 6 6 7 8 7 12 15 17 17 18 18 16 11 10 10 11 11 11 11 11 12 12 12 13 13 13 12 14 14 15 14 13 14 15 15 16 16 16 16 15 15 15 16 16 17 16 17 17 16 15 16 16 16 18 18 17 18 19 18
7 7 6 6 6 5 4 4 3 3 3 2 1 1 1 1 2 2 2 3 3 3 4 4 5 5 6 7 8 8 8 12 16 16 18 17 19 11 9 10 10 11 11 11 11 11 11 12 12 13 13 14 17 21 19 16 15 15 16 16 16 16 15 16 20 20 18 16 16 17 16 18 22 20 18 17 15 13 14 14 13 13 14 14 14
7 7 6 6 6 5 4 4 3 3 3 2 2 1 1 2 2 2 3 3 3 3 4 4 4 5 6 6 7 8 8 11 15 17 18 19 15 9 10 10 10 11 11 11 11 12 11 13 13 13 14 15 19 23 23 23 16 16 16 16 15 15 15 16 20 24 25 26 28 29 30 30 29 29 28 28 22 17 16 16 16 13 15 15 15
7 7 7 6 6 5 4 4 4 3 3 2 1 1 1 2 1 2 3 4 4 4 5 5 4 5 6 7 7 9 9 11 16 17 18 18 15 11 9 9 11 11 11 11 10 11 13 19 19 17 17 17 22 24 25 22 17 16 16 17 17 16 16 15 15 15 24 26 27 29 29 29 30 30 29 27 26 20 14 16 15 13 15 13 15
8 7 7 6 5 5 4 4 4 3 3 2 1 1 1 1 2 2 3 3 4 4 4 5 5 5 6 7 11 11 10 11 14 16 18 18 14 10 9 10 10 10 10 11 11 12 14 15 20 19 18 21 26 26 26 22 16 16 16 16 16 15 15 16 16 18 16 16 17 18 19 21 19 18 18 24 25 24 18 17 15 14 16 16 17
7 6 6 6 5 4 4 4 4 3 3 2 1 1 1 1 2 2 3 3 4 4 4 5 6 6 6 6 7 7 9 9 11 17 17 18 17 11 9 9 10 11 11 11 11 12 13 13 15 18 20 22 24 26 25 28 19 15 14 14 15 16 13 12 15 15 15 15 14 14 14 13 14 14 14 15 14 15 17 17 17 16 16 16 15
7 7 6 5 5 4 4 4 4 3 2 2 1 1 1 1 2 3 3 3 3 4 6 6 6 6 5 6 7 7 8 10 10 16 17 17 17 15 9 10 10 11 11 11 10 10 10 11 12 17 22 23 24 26 28 30 29 18 13 12 12 16 18 13 13 19 14 12 11 12 12 11 12 12 13 14 14 14 14 15 15 16 16 17 17
7 6 6 5 5 4 4 3 3 3 3 2 1 1 1 1 2 3 3 3 5 6 6 5 5 6 6 6 7 8 8 12 11 14 16 17 17 18 11 10 12 12 12 11 13 13 13 13 12 16 23 26 26 27 29 27 25 14 13 20 25 26 18 14 11 10 11 11 11 11 12 12 14 13 15 13 15 15 16 16 17 18 17 17 18
7 6 5 5 5 4 4 4 3 3 2 2 1 1 2 1 2 3 4 4 5 5 6 5 5 5 6 5 6 6 7 9 14 13 15 17 17 16 18 15 18 13 11 11 11 12 13 14 15 22 25 27 27 25 23 26 21 14 24 25 25 26 20 9 10 10 10 11 10 11 12 11 12 13 12 13 13 14 14 15 17 18 18 19 19
7 6 5 5 5 4 3 3 3 2 2 1 1 2 2 2 3 3 3 3 4 4 4 3 4 5 6 7 7 7 8 8 11 14 12 15 16 17 17 18 19 12 12 12 13 13 14 14 16 26 26 25 25 26 26 24 18 24 24 24 23 19 10 9 8 8 10 10 10 11 11 11 11 12 12 11 12 13 14 14 16 17 17 17 18
6 6 5 5 4 3 3 2 2 1 1 2 2 2 2 2 3 3 3 3 3 4 3 3 4 5 7 8 8 8 8 9 8 9 13 16 19 20 21 22 21 19 12 10 12 12 17 24 25 24 25 26 27 26 21 19 19 19 19 17 15 7 7 8 8 9 9 10 10 10 11 11 11 12 12 13 14 14 14 14 14 15 16 16 17
6 5 5 4 4 4 3 2 2 2 2 2 3 3 2 3 3 3 3 3 3 3 3 3 4 6 6 7 8 9 9 7 7 8 9 12 15 19 22 19 16 18 17 13 19 22 20 20 23 24 22 18 14 11 10 11 17 17 15 14 7 7 8 9 9 9 10 10 11 12 12 11 12 12 13 13 13 13 13 14 13 14 13 14 15
6 6 5 4 4 3 3 2 2 3 4 3 3 3 3 3 3 4 3 3 3 3 3 3 4 6 7 7 9 9 8 7 8 8 9 9 9 9 9 9 15 14 10 10 10 8 12 13 12 15 12 16 15 14 12 13 11 10 8 8 9 8 9 8 9 10 11 11 11 11 11 12 12 13 12 12 13 13 12 14 13 13 13 13 15
7 6 5 4 4 4 3 3 3 3 3 3 2 3 3 3 3 4 4 3 3 3 3 4 5 6 7 8 7 7 8 7 8 8 9 9 10 9 9 10 9 8 9 9 5 7 7 9 10 7 8 8 8 7 8 9 10 10 10 10 10 10 11 14 13 10 11 10 11 12 12 12 12 12 13 12 13 13 13 13 13 13 13 12 13
5 5 5 3 3 3 3 3 4 3 2 2 3 4 3 3 4 5 6 6 5 5 4 6 7 8 7 6 7 8 8 8 8 12 13 16 14 11 10 9 10 9 11 15 10 6 6 6 6 8 8 9 9 9 9 9 9 9 10 10 10 10 10 9 10 10 10 10 11 11 12 12 12 12 12 13 12 13 12 12 12 12 13 12 14
5 5 4 4 3 3 3 4 4 3 2 2 2 4 7 10 8 6 6 9 13 16 13 8 8 6 7 8 6 7 8 10 15 18 18 18 17 17 15 15 14 12 14 15 9 6 6 6 8 9 9 9 9 9 10 10 10 11 10 11 10 10 10 11 11 11 11 11 12 12 12 12 13 12 12 13 13 13 13 13 13 12 12 12 13
5 4 4 4 4 4 4 3 3 2 2 2 2 3 4 3 9 13 12 11 12 11 12 14 13 11 8 8 8 13 14 15 16 16 17 17 16 16 15 15 14 13 13 9 5 5 6 8 8 8 9 9 9 9 10 10 10 11 12 12 10 11 12 11 11 11 11 12 12 12 12 11 12 12 11 12 13 13 12 11 11 12 12 13 13
5 5 5 4 5 4 3 3 3 3 2 2 2 2 3 4 3 5 7 7 8 10 11 11 10 9 10 10 9 8 10 12 14 15 16 15 15 14 14 13 12 12 11 8 3 4 6 8 8 8 9 8 9 9 9 10 10 10 11 12 12 11 11 11 12 13 13 13 13 13 12 11 12 12 12 12 12 12 12 12 11 12 12 12 14
4 4 4 5 4 4 4 3 3 3 3 3 2 2 2 2 4 4 2 5 9 10 9 8 7 8 10 10 11 11 11 12 13 13 14 14 13 13 13 12 10 10 9 4 3 5 6 7 7 7 8 8 9 9 9 9 10 10 10 11 12 12 12 13 14 12 11 12 13 12 13 13 13 12 11 11 11 12 12 12 12 12 12 13 14
6 5 5 5 5 4 3 3 3 3 2 2 2 2 2 3 3 4 6 5 3 4 6 6 7 9 10 10 10 10 11 12 12 12 13 12 12 12 12 7 7 7 6 3 4 6 6 7 7 7 8 8 8 9 9 10 10 10 11 11 11 11 12 12 13 13 12 13 12 13 13 13 12 13 12 11 11 11 11 12 12 11 11 12 13
4 4 5 5 4 3 3 3 3 2 2 2 2 3 3 3 3 4 3 4 5 5 4 4 4 6 7 8 9 11 11 11 11 12 12 11 11 12 8 3 4 4 4 3 4 6 7 7 7 8 7 8 9 9 10 10 10 11 11 11 11 11 12 12 12 13 13 13 13 12 13 14 13 13 12 12 10 10 11 11 12 11 12 12 12
5 5 5 5 4 3 3 3 3 3 3 2 3 3 3 3 3 3 3 4 5 5 5 4 5 9 12 8 9 11 12 11 11 11 10 10 10 10 4 4 3 4 4 4 5 7 6 7 7 8 8 8 9 9 9 10 11 11 11 11 11 11 11 12 13 13 14 13 13 14 14 13 13 13 13 13 13 12 11 11 11 11 12 12 12
6 5 5 4 4 3 3 3 3 3 3 3 4 4 4 4 4 4 4 4 4 4 5 5 5 5 4 2 5 10 12 11 10 10 9 10 9 4 1 2 2 3 3 4 6 6 7 7 7 8 8 8 9 9 9 10 10 11 12 11 11 11 12 12 13 13 13 13 13 13 14 13 13 13 12 13 13 12 11 11 12 12 11 13 15
5 4 3 3 3 3 3 3 3 5 4 4 4 4 5 4 3 3 3 4 4 5 4 4 4 4 4 3 5 4 8 11 10 6 4 5 4 2 2 2 2 3 4 5 6 6 7 7 7 7 8 8 9 9 9 9 10 10 11 11 11 11 16 14 15 14 14 14 14 14 13 13 13 13 13 13 13 13 13 12 12 12 12 13 10
3 4 6 7 5 4 3 3 3 4 4 5 5 5 4 3 3 3 4 3 4 4 4 4 4 4 4 3 4 6 7 5 4 4 5 4 3 3 3 3 3 3 4 5 7 6 7 7 8 7 8 8 9 9 9 9 9 10 10 10 11 11 12 12 13 14 14 14 14 13 13 13 13 13 13 13 13 13 13 13 13 12 12 11 11
4 4 6 8 4 5 4 4 4 4 5 5 5 3 3 3 3 3 3 3 4 4 4 4 4 4 3 2 3 4 5 6 5 4 4 4 4 3 3 3 3 5 6 6 6 6 7 7 7 8 8 8 8 9 8 9 9 10 10 10 11 11 11 12 13 14 15 14 13 13 13 13 13 13 12 12 12 13 13 13 13 12 11 11 11
4 3 3 5 5 3 4 4 4 4 3 4 3 3 3 3 3 3 4 5 4 4 5 5 5 4 3 6 9 9 5 5 4 3 4 4 4 4 3 3 4 5 5 6 6 6 7 7 7 7 8 8 8 8 9 9 9 9 9 10 11 11 11 11 13 14 15 14 13 13 13 13 13 13 13 13 14 13 12 12 11 11 11 10 10
3 3 4 3 4 4 3 3 3 3 3 3 3 4 3 3 3 4 5 5 5 5 5 5 5 4 6 10 9 8 5 3 2 4 4 5 4 4 4 4 5 5 6 6 6 6 6 7 7 7 8 8 8 8 8 8 9 9 10 10 11 11 11 12 13 14 14 14 14 13 13 13 13 13 13 13 12 12 12 11 11 11 10 9 9
3 3 3 2 3 4 3 3 2 2 3 3 4 4 4 4 5 6 7 6 5 5 5 5 4 3 4 7 6 5 3 3 3 5 5 5 5 5 5 5 4 4 6 6 6 6 6 7 7 7 7 8 8 8 8 9 9 9 10 10 11 11 11 11 13 14 14 14 14 14 14 12 12 12 12 12 12 12 11 12 11 10 10 9 8
3 3 2 3 3 2 3 2 3 3 3 3 3 4 4 5 6 6 7 6 5 5 5 5 4 4 4 3 3 1 2 3 4 4 5 5 5 5 4 4 4 4 5 6 6 6 6 7 7 7 8 8 8 8 8 8 8 9 9 10 10 12 11 11 13 14 14 14 13 13 13 12 12 11 11 12 12 12 11 11 11 10 9 8 8
3 3 3 3 5 5 5 4 3 3 3 3 4 4 4 5 7 7 6 5 5 5 5 4 4 4 4 3 2 2 2 3 4 5 5 5 5 5 4 4 4 5 5 5 5 5 6 6 7 8 8 8 7 8 8 8 8 8 8 10 10 11 10 11 12 12 12 11 11 11 11 11 11 11 11 11 11 11 10 10 10 10 10 9 8
3 3 3 3 3 3 3 3 3 3 3 3 3 3 3 4 5 6 5 5 5 5 4 4 4 4 4 4 3 2 3 3 4 4 5 4 4 4 4 4 4 5 5 5 5 5 6 7 7 7 8 8 8 8 8 8 8 8 9 9 10 10 10 11 12 12 11 9 9 10 11 10 10 10 12 11 10 10 10 10 9 9 8 8 8
3 4 5 5 5 3 3 2 2 3 3 3 3 3 3 4 5 5 6 6 6 5 5 4 4 4 3 3 3 3 3 3 4 4 5 5 5 5 4 4 4 5 6 6 6 6 6 6 6 7 8 8 8 8 8 7 7 8 8 8 9 11 10 11 12 11 9 8 7 6 8 9 10 10 11 11 10 10 10 9 9 10 9 8 7
5 5 6 5 5 4 3 2 3 4 4 4 3 3 4 4 4 5 4 5 6 6 5 4 4 4 3 4 3 3 3 3 4 5 5 5 4 4 4 4 5 5 6 6 6 6 5 6 6 7 8 8 7 7 7 8 7 8 8 8 9 10 15 18 13 11 9 7 5 5 6 7 8 9 9 10 10 9 9 9 9 8 8 8 7
6 6 6 6 5 5 3 3 3 3 3 3 3 4 4 4 5 4 5 5 5 5 5 4 4 4 4 4 3 4 4 4 5 5 5 5 5 5 5 5 5 7 6 6 6 6 6 6 6 6 7 7 7 7 8 8 8 8 8 9 11 19 22 22 15 11 9 7 4 3 4 6 7 8 8 8 8 8 8 8 7 7 7 6 6
6 6 6 6 5 5 4 3 4 3 2 3 3 4 4 4 4 5 5 4 5 5 5 4 4 4 4 4 4 4 4 4 5 5 5 5 5 4 5 5 5 6 7 7 7 7 7 6 6 7 7 7 7 7 7 7 7 8 8 9 18 22 21 20 19 17 8 5 4 3 3 5 6 6 7 7 7 8 7 8 8 8 6 6 6
6 6 6 6 6 5 5 5 5 3 3 3 4 4 4 4 5 4 4 5 5 5 4 4 4 4 5 5 4 4 5 5 5 5 5 5 5 5 5 5 6 6 7 7 7 6 6 6 6 7 6 7 7 7 7 7 7 7 12 19 21 20 19 19 14 17 12 6 4 3 3 4 5 6 6 7 7 6 8 8 7 7 6 6 5
Wind_Direction
127 123 121 120 116 109 107 101 95 88 86 83 87 83 78 73 66 62 62 43 22 10 12 6 359 353 344 343 343 339 340 337 337 333 328 325 320 316 313 312 307 304 301 298 290 287 288 286 286 284 283 282 281 285 282 280 277 273 271 270 268 265 264 269 274 283 283 273 274 280 281 281 283 274 275 281 281 277 262 266 262 258 257 261 266
133 129 124 116 108 102 96 92 92 99 97 92 90 94 86 69 52 40 39 31 18 6 9 1 351 343 337 332 334 332 331 331 328 328 324 321 318 316 312 312 309 306 305 301 300 295 291 289 288 287 286 282 284 284 285 286 284 282 279 277 275 276 268 270 274 278 286 289 280 276 278 269 275 277 279 283 282 280 280 274 270 264 260 252 255
126 121 112 101 96 98 106 109 110 106 105 106 97 84 77 63 48 38 22 12 3 12 1 357 346 340 335 335 335 332 333 331 332 327 323 320 317 316 312 309 306 304 304 301 301 299 295 294 294 295 293 290 289 288 287 285 284 282 282 281 280 279 277 273 275 278 282 285 286 283 277 270 260 274 278 281 285 283 279 273 269 263 257 255 253
133 119 111 113 121 122 117 119 120 121 111 96 89 80 72 68 47 31 17 8 357 4 1 354 353 344 343 342 341 337 337 337 332 329 323 320 316 312 310 306 301 298 297 297 299 298 295 295 294 300 300 296 295 295 292 289 289 290 288 286 284 283 282 278 271 275 282 287 287 285 286 284 275 270 270 269 274 283 282 281 276 270 263 257 255
134 129 130 130 134 131 128 123 115 108 101 91 80 72 59 47 37 21 13 2 1 359 357 356 353 349 345 341 338 338 338 334 329 324 321 316 312 308 305 302 299 296 294 293 294 294 294 292 296 301 301 297 297 296 298 297 295 292 289 289 287 286 284 280 278 274 277 278 284 284 285 281 279 276 272 270 269 270 279 279 279 278 276 268 262
145 142 143 142 141 132 123 113 105 98 91 86 71 57 45 34 20 15 10 357 358 358 355 352 349 343 339 334 334 332 333 328 323 319 318 316 310 305 302 299 297 296 294 293 292 294 293 295 297 298 297 295 295 297 298 298 298 294 292 290 289 288 285 282 278 276 274 274 278 286 283 284 286 277 275 273 271 274 273 278 283 280 281 280 269
149 149 151 144 136 125 114 108 106 98 89 75 65 51 40 28 15 8 357 353 358 353 354 348 342 338 329 332 330 331 326 322 319 319 318 314 310 305 303 299 297 296 294 294 295 294 294 295 296 297 295 294 295 297 301 301 298 294 292 293 292 291 289 287 286 283 281 280 281 280 285 285 283 285 282 274 277 274 281 283 279 283 282 279 282
151 152 146 136 128 121 115 115 104 90 83 78 65 53 36 21 10 352 357 357 1 354 348 341 332 328 327 327 325 324 320 317 316 322 320 316 310 307 305 302 300 298 297 297 298 297 298 297 295 295 295 296 300 302 301 299 298 294 291 292 291 289 286 285 285 284 283 283 281 283 283 286 286 283 286 283 278 275 270 275 279 281 281 285 285
152 147 138 129 126 127 124 111 99 96 92 86 74 48 32 13 358 354 1 357 351 345 338 331 326 324 327 325 322 320 316 313 320 327 323 316 314 309 307 303 302 301 300 301 301 301 299 297 295 297 299 298 294 292 291 290 291 291 291 291 290 289 288 287 286 284 283 281 281 280 282 281 281 287 289 286 285 289 295 295 286 284 284 282 281
149 141 134 130 130 127 120 115 113 109 100 91 73 35 22 5 348 354 354 351 342 340 329 326 321 324 324 323 322 313 309 303 307 309 310 310 310 305 302 299 298 297 298 298 298 296 297 294 293 293 294 293 294 293 292 292 290 289 292 294 292 290 288 289 287 286 286 284 282 286 284 281 285 288 290 291 296 296 292 289 286 287 286 281 278
143 140 135 135 133 133 132 130 130 122 106 92 68 39 16 350 339 340 343 343 331 333 321 318 329 322 318 317 315 306 297 293 299 306 309 308 305 299 297 296 295 293 291 293 295 297 296 295 295 298 298 295 294 296 295 293 292 291 290 289 289 289 291 289 285 285 284 280 282 280 279 282 283 284 285 290 290 293 292 294 297 297 291 290 285
142 138 135 139 142 141 139 140 138 128 112 98 90 46 356 320 323 331 329 331 328 320 313 319 317 315 311 308 302 297 292 289 297 305 307 305 303 300 296 293 293 292 291 290 291 293 297 298 297 298 296 297 299 297 293 293 295 294 294 295 295 292 288 286 289 288 285 285 283 280 283 284 290 290 291 295 297 298 296 293 288 286 283 280 279
142 140 143 148 146 138 145 151 144 131 111 97 91 8 306 297 301 318 321 324 309 307 311 314 306 312 308 304 298 295 289 294 299 306 305 305 304 302 294 291 289 288 288 289 290 292 295 297 297 293 293 294 293 293 296 297 295 296 296 297 298 296 294 290 287 284 285 282 281 282 279 285 283 282 286 289 292 290 291 288 289 288 291 291 289
145 143 147 149 146 148 155 151 139 122 112 105 104 253 272 277 313 303 305 301 299 298 299 299 303 308 307 302 296 294 294 295 300 304 306 305 303 301 293 292 289 288 288 289 289 290 290 291 292 291 291 293 294 295 295 295 294 295 293 288 281 278 278 279 279 280 279 276 277 277 280 276 278 283 285 286 286 283 281 281 283 280 276 274 277
150 150 152 152 149 157 158 148 131 132 135 149 191 230 240 282 300 299 304 300 297 301 305 305 303 296 298 298 296 294 286 294 300 305 306 306 304 305 299 294 289 285 285 284 284 285 286 285 284 285 288 289 289 288 290 290 290 285 277 273 271 273 275 275 274 276 277 272 271 273 277 276 274 277 279 278 274 272 272 275 277 280 282 284 281
153 155 154 158 163 162 153 143 145 149 154 172 185 250 228 282 304 303 294 288 286 287 292 296 295 294 293 295 296 291 292 298 303 305 306 308 309 308 299 291 286 283 282 283 284 284 282 281 281 283 284 287 287 287 287 287 285 283 280 273 269 266 266 267 269 270 269 269 269 269 269 273 276 276 276 276 274 272 271 273 275 280 283 284 285
164 161 162 162 162 156 152 148 152 155 157 176 189 228 243 291 296 308 301 295 294 297 293 296 293 293 293 292 293 293 294 297 303 305 307 309 311 302 295 291 287 286 285 285 285 284 282 279 280 282 285 284 285 285 287 287 284 280 278 277 277 279 278 276 275 274 271 272 273 274 276 277 278 281 283 283 282 284 287 287 284 290 287 288 286
166 163 165 156 155 151 149 151 151 156 162 169 185 230 295 292 282 315 303 304 300 298 301 294 288 285 288 290 291 297 295 297 303 307 308 308 307 303 298 292 290 289 289 288 288 288 286 283 281 281 282 284 284 284 283 283 283 282 279 279 278 276 276 277 277 274 275 275 276 276 277 281 283 285 286 286 284 284 282 280 285 286 282 282 284
164 163 155 150 147 142 147 149 150 153 160 160 154 236 276 280 299 295 286 292 289 292 295 293 293 294 285 288 297 295 291 294 303 306 307 307 306 301 297 293 291 293 294 293 287 277 277 274 280 282 281 282 284 286 287 289 286 282 279 276 276 270 272 273 274 275 272 270 270 270 269 270 274 276 277 278 277 273 268 270 275 273 275 276 278
146 138 137 139 138 141 142 146 150 151 152 142 166 223 281 279 279 295 300 293 296 298 298 297 295 291 288 285 286 288 291 295 297 305 307 308 309 307 301 297 294 294 292 281 277 272 270 272 282 288 286 286 289 291 293 291 289 284 282 277 275 281 282 276 272 272 273 270 271 268 265 268 273 277 277 275 272 268 268 266 267 268 270 273 274
133 136 137 136 137 143 146 149 148 140 129 146 163 240 273 291 303 296 295 293 295 300 297 293 290 287 288 286 287 285 281 289 293 307 309 311 313 313 306 300 296 288 277 272 269 277 287 290 292 292 294 293 292 292 291 291 295 298 294 287 286 290 299 297 298 304 302 299 294 293 291 291 290 288 286 282 278 277 274 270 268 266 266 270 273
132 135 142 141 141 144 149 140 138 132 130 135 173 242 238 289 290 287 291 300 299 294 297 296 294 295 296 291 286 284 276 278 290 297 303 310 313 313 309 300 298 296 298 301 298 291 291 295 295 295 294 293 291 292 296 301 313 322 313 311 311 317 320 317 317 318 313 307 302 297 293 287 286 285 282 278 277 274 273 271 268 265 264 265 267
138 142 137 140 147 151 148 143 132 134 128 145 166 260 278 269 272 272 277 287 284 286 288 287 299 301 307 300 299 292 297 299 290 294 306 313 312 312 311 308 306 304 297 287 287 296 300 297 295 291 288 290 297 309 316 318 320 312 312 312 313 314 318 316 308 303 297 296 293 288 286 285 286 286 285 285 283 282 280 276 273 271 269 269 267
138 137 143 151 153 153 146 135 133 131 136 160 197 233 254 270 274 261 270 276 279 284 290 297 303 304 312 317 316 316 315 307 310 310 313 316 318 319 318 313 309 304 299 299 301 301 300 296 293 298 307 315 318 315 312 312 308 308 310 312 316 319 312 307 304 302 300 295 294 292 291 294 293 290 288 288 288 286 284 280 278 276 273 271 268
139 148 154 156 156 148 139 132 124 133 163 188 221 232 234 226 262 246 248 266 270 282 286 300 301 309 316 315 317 315 313 314 311 307 306 304 303 300 297 300 305 311 316 314 311 309 309 311 316 320 319 316 314 313 310 308 312 314 316 322 327 315 314 313 314 312 304 299 295 292 290 289 288 287 288 289 289 287 281 277 274 270 268 266 267
145 150 151 156 151 142 137 139 150 168 212 219 220 232 232 246 251 266 255 258 258 265 282 286 297 305 304 308 311 313 310 309 310 309 308 296 297 296 299 303 324 328 324 321 316 316 321 326 323 317 315 316 319 318 315 315 317 321 323 325 319 321 321 318 309 306 297 295 292 288 288 289 289 289 289 287 284 280 281 281 282 278 276 274 272
142 151 158 150 144 150 147 156 162 176 205 218 220 225 221 224 233 249 246 248 254 257 268 269 292 297 296 302 304 305 312 313 311 307 307 293 277 280 303 335 331 327 332 321 326 343 327 322 319 323 326 323 322 320 318 320 323 325 323 325 324 318 313 305 299 296 294 289 289 287 288 288 288 288 284 284 282 280 279 281 280 280 280 278 276
158 157 156 155 155 158 163 157 193 209 195 200 227 224 215 213 230 236 233 237 242 251 249 272 281 286 292 295 292 307 312 310 311 310 303 305 314 329 339 329 334 336 330 327 348 337 329 322 325 327 323 327 327 329 330 332 329 327 323 321 313 308 302 299 295 288 284 287 288 290 289 290 288 286 287 284 283 281 281 278 278 280 278 279 276
129 137 151 150 153 154 173 181 202 207 201 221 239 238 237 234 236 251 239 238 241 234 250 258 267 272 260 264 301 307 304 306 307 309 316 321 327 337 336 335 337 337 330 334 342 331 324 327 329 335 342 338 339 337 334 332 330 323 321 320 317 314 315 315 308 304 302 299 295 293 291 287 285 283 281 279 277 280 278 277 276 276 279 273 270
146 160 161 164 156 165 186 192 195 198 201 232 260 269 236 228 229 237 260 247 240 240 231 237 246 262 284 293 291 290 297 299 308 316 319 325 335 336 335 339 339 336 336 345 345 327 330 336 344 340 340 337 333 334 334 331 329 330 330 326 322 316 313 310 306 304 302 298 292 289 285 284 281 282 279 278 280 280 279 278 276 274 275 274 273
163 160 168 179 174 177 187 190 186 188 197 210 241 280 302 257 241 252 257 258 261 267 277 280 283 283 282 291 295 293 297 303 310 316 321 333 338 336 340 345 343 341 347 352 342 336 338 341 343 341 339 334 327 329 327 325 327 327 329 329 325 320 315 308 305 302 297 294 291 284 280 278 277 278 276 278 279 281 282 275 270 268 263 264 265
167 174 173 164 167 189 190 182 173 190 195 197 222 251 287 306 292 227 250 277 280 286 284 279 279 285 291 291 295 299 302 307 313 318 329 337 337 338 344 345 344 346 349 352 334 331 342 342 338 337 333 327 326 323 321 321 318 317 318 322 320 312 313 308 312 308 303 297 294 293 285 282 282 281 280 279 276 277 278 278 272 268 267 265 264
158 155 153 161 175 177 189 180 190 187 191 198 204 216 249 277 293 306 265 277 286 287 288 282 277 290 300 298 297 300 306 314 317 323 333 336 336 340 343 339 338 349 356 357 336 330 339 334 321 319 319 314 317 315 314 314 311 309 309 305 305 310 316 319 318 315 311 309 310 306 305 297 288 284 278 274 274 275 277 274 274 268 265 266 267
162 165 172 174 172 175 177 190 189 192 194 194 213 225 236 243 269 290 307 321 315 277 250 265 279 300 303 305 304 309 315 320 322 329 337 338 340 346 342 327 324 352 10 345 335 338 335 323 320 317 315 315 314 317 313 313 312 308 306 299 297 314 320 320 323 325 323 320 316 311 308 305 304 297 287 280 273 271 273 273 270 268 266 261 264
164 168 160 167 176 174 181 188 184 190 187 203 210 222 231 241 250 263 279 296 303 300 304 293 278 291 310 310 314 318 321 323 323 331 339 342 349 352 342 332 345 350 356 349 333 337 332 322 313 313 313 313 312 312 310 310 308 308 305 307 318 326 328 333 330 328 325 323 316 311 309 309 306 302 297 284 279 279 275 276 277 269 267 269 266
170 178 172 177 181 179 179 185 192 193 201 213 220 229 234 235 240 256 263 265 268 285 286 286 296 307 306 310 324 325 325 325 320 331 339 344 355 2 2 353 338 341 333 329 332 330 320 313 313 312 315 313 314 312 312 311 310 312 312 321 326 328 330 331 331 331 326 323 318 316 313 310 308 306 305 301 282 273 280 278 277 279 272 269 268
179 182 174 176 174 181 178 186 195 203 210 210 220 223 222 233 251 255 257 254 257 261 271 290 305 301 291 256 319 330 329 320 316 323 335 340 353 3 355 330 317 314 315 324 328 322 316 316 317 310 312 313 312 312 312 310 311 313 316 319 322 327 329 328 329 330 328 325 323 321 317 314 312 312 310 307 307 297 284 280 280 276 278 280 284
185 177 169 146 147 168 182 199 210 215 221 221 221 225 238 244 240 242 245 250 251 261 269 274 280 283 298 303 336 317 319 309 308 311 316 336 350 350 338 315 324 322 323 320 324 313 305 306 310 307 306 305 304 307 308 311 315 319 320 322 327 329 330 329 330 330 330 328 325 324 321 317 315 315 313 311 309 312 314 307 296 290 288 287 288
181 172 171 176 185 186 191 201 207 213 219 217 228 235 239 236 237 239 241 247 249 252 256 260 262 259 270 299 313 310 314 316 325 319 325 325 322 327 327 325 323 320 315 315 317 308 304 302 305 303 301 302 302 305 308 311 314 314 316 322 327 329 333 334 333 334 334 332 328 326 323 321 319 316 315 313 314 314 313 311 312 309 304 307 307
168 177 189 190 203 204 200 207 211 217 221 227 230 218 226 232 235 238 245 248 251 250 249 254 253 249 262 281 281 293 303 304 303 306 307 305 307 310 311 304 307 312 312 310 307 303 301 300 302 302 303 301 302 303 306 309 310 313 316 327 328 327 331 333 335 334 334 330 325 322 322 322 320 318 316 317 317 316 315 314 312 311 314 314 312
176 173 169 200 200 206 212 214 220 221 219 222 226 227 229 231 237 245 250 251 255 253 253 249 251 254 253 260 272 285 292 291 292 290 282 282 288 290 288 286 294 297 294 294 293 296 295 297 298 297 299 300 304 305 308 308 310 313 317 317 323 328 329 331 335 336 333 330 329 324 321 320 321 322 321 320 320 319 316 316 316 317 318 321 321
174 171 185 195 204 208 209 217 218 220 228 230 228 229 229 231 237 244 246 250 251 254 257 255 254 250 254 267 278 293 300 284 288 278 273 269 270 269 270 277 284 284 286 292 293 289 291 291 293 293 296 300 303 307 310 309 312 315 315 317 316 315 322 333 337 338 335 332 330 325 322 320 320 323 320 318 320 320 321 321 324 323 325 329 331
176 188 189 193 198 210 214 219 216 222 225 224 231 229 241 242 248 250 251 249 251 251 254 259 262 256 258 266 281 299 287 265 255 259 261 264 262 265 264 265 268 282 286 283 284 283 283 289 290 290 292 296 298 299 306 308 312 313 313 313 315 315 313 324 337 340 338 335 330 326 321 320 321 323 324 324 323 322 324 326 327 330 333 337 345
187 190 197 202 212 220 223 229 229 227 230 234 241 245 244 249 248 247 249 250 246 244 248 255 259 265 266 263 260 254 243 248 249 254 254 258 258 261 267 268 275 276 285 285 287 287 286 287 287 290 290 290 293 297 298 303 309 309 310 311 312 312 310 321 336 339 338 337 329 326 325 322 320 322 325 327 326 325 328 333 335 337 340 348 352
191 194 198 210 220 223 228 223 225 229 232 240 242 244 240 237 249 250 246 247 245 244 247 250 255 258 260 253 243 240 242 247 251 253 255 255 260 258 263 271 271 276 281 282 277 289 286 282 284 288 292 294 297 298 299 302 306 306 305 305 305 307 310 326 333 331 331 331 330 325 326 326 324 323 324 326 327 328 328 333 337 338 342 349 357
190 197 209 219 219 222 224 218 213 222 222 225 228 238 235 241 243 246 246 246 246 249 248 247 247 250 253 255 249 241 242 248 255 252 256 257 258 264 266 273 278 280 280 282 283 283 286 285 285 287 289 291 296 297 299 295 296 298 301 301 304 307 312 322 323 324 330 325 329 331 325 323 324 321 324 326 326 330 328 331 336 344 343 348 359
187 213 222 224 226 225 222 222 218 219 219 223 225 229 241 237 240 242 241 241 248 248 248 247 244 247 249 254 253 254 252 258 259 263 261 262 262 265 269 271 278 283 283 280 279 278 278 281 285 286 286 288 289 289 291 295 298 298 299 304 308 313 318 323 321 321 324 320 317 324 332 325 324 326 327 330 329 331 332 336 338 343 346 350 348
214 220 224 225 228 234 227 215 230 229 231 226 223 227 233 242 243 240 242 242 244 246 250 249 248 248 251 255 249 249 254 258 263 263 266 265 265 264 265 266 272 275 282 283 278 275 278 283 281 288 289 288 286 289 290 294 295 299 300 304 306 310 312 315 320 319 323 315 309 320 323 323 327 325 329 332 333 331 334 338 338 342 350 354 358
219 222 224 223 226 233 230 224 224 230 229 231 231 232 232 236 240 243 244 245 245 245 244 246 247 245 245 249 247 252 251 254 259 261 258 260 261 264 265 264 273 279 278 279 278 276 276 278 277 280 282 285 286 287 288 290 293 295 299 301 306 309 312 317 322 319 313 309 310 315 323 325 322 321 323 328 330 333 333 333 335 336 340 344 346
220 222 226 227 230 237 243 242 240 238 236 233 236 242 237 238 241 241 241 241 248 245 245 242 246 245 248 251 246 245 246 249 250 253 257 261 262 264 267 270 269 275 277 279 281 285 281 276 276 276 278 280 283 280 284 285 287 291 297 301 307 309 312 318 324 323 324 322 313 333 326 321 319 322 327 328 329 332 334 337 336 335 337 344 350
220 222 225 229 235 240 241 246 248 236 232 233 232 236 239 236 239 239 238 238 240 244 245 245 248 247 246 245 245 249 249 249 253 257 259 260 259 262 265 269 273 276 276 276 277 271 275 275 278 278 280 279 283 280 282 283 285 287 297 302 306 311 316 323 325 324 327 336 320 330 335 329 324 329 333 336 335 336 337 334 335 339 342 348 349